TimeCDT,TemperatureF,Dew PointF,Humidity,Sea Level PressureIn,VisibilityMPH,Wind Direction,Wind SpeedMPH,Gust SpeedMPH,PrecipitationIn,Events,Conditions,WindDirDegrees,DateUTC
12:15 AM,71.6,64.4,78,29.83,10.0,South,5.8,-,N/A,,Clear,170,2012-10-23 05:15:00
12:35 AM,71.6,64.4,78,29.83,10.0,SSE,3.5,-,N/A,,Clear,160,2012-10-23 05:35:00
12:55 AM,71.6,64.4,78,29.83,10.0,South,3.5,-,N/A,,Clear,180,2012-10-23 05:55:00
1:15 AM,69.8,64.4,83,29.83,10.0,South,4.6,-,N/A,,Scattered Clouds,180,2012-10-23 06:15:00
1:35 AM,69.8,64.4,83,29.83,10.0,South,4.6,-,N/A,,Clear,190,2012-10-23 06:35:00
1:55 AM,69.8,64.4,83,29.84,7.0,South,5.8,-,N/A,,Clear,190,2012-10-23 06:55:00
2:15 AM,71.6,64.4,78,29.84,10.0,South,6.9,-,N/A,,Clear,190,2012-10-23 07:15:00
2:55 AM,71.6,64.4,78,29.84,10.0,South,8.1,-,N/A,,Clear,190,2012-10-23 07:55:00
3:15 AM,71.6,64.4,78,29.84,10.0,South,6.9,-,N/A,,Clear,190,2012-10-23 08:15:00
3:35 AM,71.6,64.4,78,29.83,10.0,South,6.9,-,N/A,,Scattered Clouds,190,2012-10-23 08:35:00
3:55 AM,71.6,64.4,78,29.83,10.0,SSW,6.9,-,N/A,,Scattered Clouds,200,2012-10-23 08:55:00
4:15 AM,71.6,64.4,78,29.83,10.0,South,6.9,-,N/A,,Mostly Cloudy,190,2012-10-23 09:15:00
4:35 AM,71.6,64.4,78,29.83,10.0,South,6.9,-,N/A,,Scattered Clouds,190,2012-10-23 09:35:00
4:55 AM,71.6,64.4,78,29.83,10.0,South,6.9,-,N/A,,Mostly Cloudy,180,2012-10-23 09:55:00
5:15 AM,71.6,64.4,78,29.84,10.0,South,5.8,-,N/A,,Overcast,180,2012-10-23 10:15:00
5:35 AM,71.6,64.4,78,29.84,10.0,South,6.9,-,N/A,,Overcast,180,2012-10-23 10:35:00
5:55 AM,71.6,64.4,78,29.84,10.0,South,8.1,-,N/A,,Mostly Cloudy,190,2012-10-23 10:55:00
6:35 AM,69.8,64.4,83,29.84,10.0,South,6.9,-,N/A,,Mostly Cloudy,190,2012-10-23 11:35:00
6:55 AM,69.8,64.4,83,29.85,10.0,South,9.2,-,N/A,,Mostly Cloudy,180,2012-10-23 11:55:00
7:15 AM,69.8,62.6,78,29.86,10.0,SSW,16.1,20.7,N/A,,Overcast,200,2012-10-23 12:15:00
7:35 AM,69.8,62.6,78,29.86,10.0,SSW,11.5,20.7,N/A,,Mostly Cloudy,200,2012-10-23 12:35:00
7:55 AM,68.0,60.8,78,29.86,7.0,SSW,13.8,20.7,N/A,Rain,Light Rain,200,2012-10-23 12:55:00
8:15 AM,66.2,60.8,83,29.86,10.0,SSW,15.0,-,0.01,,Mostly Cloudy,200,2012-10-23 13:15:00
8:35 AM,66.2,60.8,83,29.87,10.0,South,13.8,19.6,0.01,,Mostly Cloudy,190,2012-10-23 13:35:00
8:55 AM,66.2,60.8,83,29.87,10.0,South,12.7,-,0.01,,Mostly Cloudy,190,2012-10-23 13:55:00
9:15 AM,68.0,60.8,78,29.86,10.0,SSW,13.8,19.6,N/A,,Mostly Cloudy,200,2012-10-23 14:15:00
9:35 AM,69.8,62.6,78,29.86,10.0,SSW,12.7,20.7,N/A,,Mostly Cloudy,200,2012-10-23 14:35:00
9:55 AM,69.8,60.8,73,29.86,10.0,South,13.8,18.4,N/A,,Overcast,190,2012-10-23 14:55:00
10:15 AM,71.6,62.6,73,29.86,10.0,SSW,15.0,-,N/A,,Mostly Cloudy,200,2012-10-23 15:15:00
10:55 AM,73.4,62.6,69,29.85,10.0,South,15.0,19.6,N/A,,Scattered Clouds,190,2012-10-23 15:55:00
11:15 AM,75.2,62.6,65,29.84,10.0,SSW,16.1,20.7,N/A,,Scattered Clouds,200,2012-10-23 16:15:00
11:35 AM,75.2,62.6,65,29.84,10.0,South,13.8,18.4,N/A,,Overcast,180,2012-10-23 16:35:00
11:55 AM,75.2,62.6,65,29.84,10.0,South,13.8,20.7,N/A,,Overcast,190,2012-10-23 16:55:00
12:15 PM,73.4,62.6,69,29.84,10.0,SSW,17.3,20.7,N/A,,Overcast,200,2012-10-23 17:15:00
12:35 PM,75.2,62.6,65,29.83,10.0,South,15.0,21.9,N/A,,Overcast,190,2012-10-23 17:35:00
12:55 PM,75.2,64.4,69,29.82,10.0,South,17.3,23.0,N/A,,Overcast,190,2012-10-23 17:55:00
1:15 PM,75.2,64.4,69,29.81,10.0,South,16.1,-,N/A,,Overcast,180,2012-10-23 18:15:00
1:35 PM,75.2,64.4,69,29.80,10.0,South,15.0,19.6,N/A,,Overcast,180,2012-10-23 18:35:00
1:55 PM,75.2,64.4,69,29.80,10.0,South,16.1,20.7,N/A,,Overcast,180,2012-10-23 18:55:00
2:15 PM,75.2,64.4,69,29.79,10.0,South,13.8,-,N/A,,Overcast,180,2012-10-23 19:15:00
2:55 PM,75.2,64.4,69,29.78,10.0,South,13.8,19.6,N/A,,Overcast,180,2012-10-23 19:55:00
3:15 PM,75.2,64.4,69,29.78,10.0,South,11.5,-,N/A,,Overcast,180,2012-10-23 20:15:00
3:35 PM,77.0,66.2,69,29.76,10.0,South,13.8,17.3,N/A,,Mostly Cloudy,180,2012-10-23 20:35:00
3:55 PM,78.8,66.2,65,29.76,10.0,South,13.8,19.6,N/A,,Mostly Cloudy,180,2012-10-23 20:55:00
4:15 PM,77.0,64.4,65,29.77,10.0,South,11.5,-,N/A,,Mostly Cloudy,190,2012-10-23 21:15:00
4:35 PM,77.0,64.4,65,29.77,10.0,South,10.4,-,N/A,,Overcast,180,2012-10-23 21:35:00
4:55 PM,77.0,64.4,65,29.77,10.0,South,13.8,-,N/A,,Overcast,180,2012-10-23 21:55:00
5:15 PM,75.2,64.4,69,29.77,10.0,South,11.5,16.1,N/A,,Overcast,180,2012-10-23 22:15:00
5:35 PM,75.2,64.4,69,29.77,10.0,South,12.7,-,N/A,,Overcast,180,2012-10-23 22:35:00
5:55 PM,75.2,64.4,69,29.78,10.0,South,10.4,-,N/A,,Overcast,190,2012-10-23 22:55:00
6:15 PM,75.2,64.4,69,29.79,10.0,South,8.1,-,N/A,,Overcast,180,2012-10-23 23:15:00
6:35 PM,73.4,64.4,73,29.79,10.0,SSE,8.1,-,N/A,,Overcast,160,2012-10-23 23:35:00
6:55 PM,73.4,64.4,73,29.80,10.0,SSE,9.2,-,N/A,,Overcast,160,2012-10-23 23:55:00
7:15 PM,73.4,64.4,73,29.81,10.0,SSE,5.8,-,N/A,,Overcast,160,2012-10-24 00:15:00
7:35 PM,73.4,64.4,73,29.82,10.0,South,5.8,-,N/A,,Overcast,170,2012-10-24 00:35:00
7:55 PM,73.4,64.4,73,29.83,10.0,SSE,5.8,-,N/A,,Overcast,160,2012-10-24 00:55:00
8:15 PM,73.4,64.4,73,29.82,10.0,SSE,8.1,-,N/A,,Overcast,150,2012-10-24 01:15:00
8:35 PM,73.4,64.4,73,29.82,10.0,SSE,10.4,-,N/A,,Overcast,150,2012-10-24 01:35:00
8:55 PM,73.4,64.4,73,29.82,10.0,SSE,11.5,-,N/A,,Overcast,150,2012-10-24 01:55:00
9:15 PM,71.6,64.4,78,29.82,10.0,SE,11.5,-,N/A,,Mostly Cloudy,140,2012-10-24 02:15:00
9:35 PM,71.6,64.4,78,29.83,10.0,SE,10.4,-,N/A,,Mostly Cloudy,140,2012-10-24 02:35:00
9:55 PM,71.6,64.4,78,29.83,10.0,SSE,10.4,-,N/A,,Overcast,150,2012-10-24 02:55:00
10:15 PM,71.6,64.4,78,29.83,10.0,SSE,9.2,-,N/A,,Overcast,150,2012-10-24 03:15:00
10:35 PM,71.6,64.4,78,29.83,10.0,SSE,9.2,-,N/A,,Overcast,150,2012-10-24 03:35:00
11:35 PM,71.6,64.4,78,29.84,10.0,South,6.9,-,N/A,,Overcast,170,2012-10-24 04:35:00
11:55 PM,71.6,64.4,78,29.83,10.0,SSE,10.4,-,N/A,,Mostly Cloudy,160,2012-10-24 04:55:00